User: anonymous   Login
Location: Morlupo
(42.1333°N, 12.5000°E)
Time: 10:58:47
(UTC+00:00)
Language:

Cosmos 468 - Orbit

View from above orbital plane
View from above orbital plane
View from above satellite
View from above satellite

Ground track
Ground track

The orbit data is extracted from the following two-line orbital elements,

1  5705U 71114A   20338.17192179  .00000039  00000-0  22648-4 0  9992
2  5705  74.0189 358.3702 0015069 175.7193 184.4091 14.35725292561267
Epoch (UTC): 03 December 2020 04:07:34
Eccentricity: 0.0015069
inclination: 74.0189°
perigee height: 762 km
apogee height: 783 km
right ascension of ascending node: 358.3702°
argument of perigee: 175.7193°
revolutions per day: 14.35725292
mean anomaly at epoch: 184.4091°
orbit number at epoch: 56126

The dashed part of the orbit path shows where the satellite is in the earth's shadow,  

DLR